SCP
0 0 0 0 0 0 0 0 0 0 0 0 0 0 0 0 0 0 0 0 0 0 0 0 0 0 0 0 0 0 0 0 0 0 0 0 0 0 0 0 0 0 0
0 0 0 0 0 0 0 0 0 0 0 0 0 0 0 0 0 0 0 0 0 0 0 0 0 0 0 0 0 0 0 0 0 0 0 0 0 0 0 0 0 0 0
0 0 0 0 0 0 0 0 0 0 0 0 0 0 0 0 0 0 0 0 0 0 0 0 0 0 0 0 0 0 0 0 0 0 0 0 0 0 0 0 0 0 0
0 0 0 0 0 0 0 0 0 0 0 0 0 0 0 0 0 0 0 0 0 0 0 0 0 0 0 0 0 0 0 0 0 0 0 0 0 0 0 0 0 0 0
0 0 0 0 0 0 0 0 0 0 0 0 0 0 0 0 0 0 0 0 0 0 0 0 0 0 0 0 0 0 0 0 0 0 0 0 0 0 0 0 0 0 0
0 0 0 0 0 0 0 0 0 0 0 0 0 0 0 0 0 -0 -0 -0 0 0 0 0 0 0 0 0 0 0 0 0 0 0 0 0 0 0 0 0 0 0 0
0 0 0 0 0 0 0 0 0 0 0 0 0 0 0 0 -0 -0 -0 -0 0 0 0 0 0 0 0 0 0 0 0 0 0 0 0 0 0 0 0 0 0 0 0
0 0 0 0 0 0 0 0 0 0 0 0 0 0 0 0 0 -0 -0 0 -0 0 0 0 0 0 0 0 0 0 0 0 0 0 0 0 0 0 0 0 0 0 0
0 0 0 0 0 0 0 0 0 0 0 0 0 0 0 0 -0 -0 -0 -0 0 0 0 0 0 0 0 0 0 0 0 0 0 0 0 0 0 0 0 0 0 0 0
0 0 0 0 0 0 0 0 0 0 0 0 0 0 0 0 -0 0 -0 0 0 0 0 0 0 0 0 0 0 0 0 0 0 0 0 0 0 0 0 0 0 0 0
0 0 0 0 0 0 0 0 0 0 0 0 0 0 0 0 -0 -0 -0 0 0 0 0 0 0 0 0 0 0 0 0 0 0 0 0 0 0 0 0 0 0 0 0
0 0 0 0 0 0 0 0 0 0 0 0 0 0 0 0 0 0 0 0 0 0 0 0 0 0 0 0 0 0 0 0 0 0 0 0 0 0 0 0 0 0 0
0 0 0 0 0 0 0 0 0 0 0 0 0 0 0 0 0 0 0 0 0 0 0 0 0 0 0 0 0 0 0 0 0 0 0 0 0 0 0 0 0 0 0
0 0 0 0 0 0 0 0 0 0 0 0 0 0 0 0 0 0 0 0 0 0 0 0 0 0 0 0 0 0 0 0 0 0 0 0 0 0 0 0 0 0 0
0 0 0 0 0 0 0 0 0 0 0 0 0 0 0 0 0 0 0 0 0 0 0 0 0 0 0 0 0 0 0 0 0 0 0 0 0 0 0 0 0 0 0
0 0 0 0 0 0 0 0 0 0 0 0 0 0 0 0 0 0 0 0 0 0 0 0 0 0 0 0 0 0 0 0 0 0 0 0 0 0 0 0 0 0 0
0 0 0 0 0 0 0 0 0 0 0 0 0 0 0 0 0 0 0 0 0 0 0 0 0 0 0 0 0 0 0 0 0 0 0 0 0 0 0 0 0 0 0
0 0 0 0 0 0 0 0 0 0 0 0 0 0 0 0 0 0 0 0 0 0 0 0 0 0 0 0 0 0 0 0 0 0 0 0 0 0 0 0 0 0 0
-0 -0 0 0 0 0 0 0 0 0 0 0 0 0 0 0 0 0 0 0 0 -0 -0 0 0 0 0 0 0 0 0 0 0 0 0 0 0 0 0 0 0 0 0
-0 -0 -0 0 0 0 0 0 0 0 0 0 0 0 0 0 0 0 0 0 0 0 0 0 0 0 0 0 0 0 0 0 0 0 0 0 0 0 0 0 0 0 0
0 -0 -0 -0 0 0 0 0 0 0 0 0 0 0 0 0 0 0 0 0 0 0 0 0 0 0 0 0 0 0 0 0 0 0 0 0 0 0 0 0 0 0 0
-0 0 -0 -0 -0 -0 0 0 0 0 0 0 0 0 0 0 0 0 0 0 0 0 0 -0 0 0 -0 -0 0 0 0 -0 -0 0 0 0 0 0 0 0 0 0 0
-0 -0 0 -0 -0 -0 -0 -0 0 0 0 0 0 0 0 0 0 0 0 0 0 0 -0 -0 -0 0 -0 -0 -0 -0 -0 -0 -0 0 0 0 0 0 0 0 0 0 0
-0 -0 -0 -0 0 -0 -0 -0 -0 -0 0 -0 0 -0 0 0 0 0 0 0 0 0 0 -0 -0 -0 -0 -0 -0 -0 -0 -0 -0 -0 -0 0 0 0 0 0 0 0 0
-0 -0 -0 -0 -0 -0 -0 -0 -0 -0 -0 -0 0 0 -0 -0 -0 0 0 0 0 0 -0 -0 -0 -0 0 0 -0 -0 -0 -0 -0 -0 0 0 0 0 0 0 0 0 0
0 0 -0 -0 0 0 -0 -0 -0 -0 -0 -0 -0 -0 0 -0 -0 -0 -0 -0 0 0 -0 0 -0 -0 -0 -0 -0 -0 0 -0 -0 -0 0 0 0 0 0 0 0 0 0
Wind_Speed_500mb
44 27 32 39 41 49 42 43 41 42 42 48 43 44 46 45 49 42 47 52 51 52 44 62 56 49 54 55 47 44 44 44 49 58 31 39 32 29 27 29 24 28 32
42 39 31 33 38 41 44 43 42 38 39 36 36 37 39 38 39 44 49 52 50 46 44 43 59 50 51 52 56 44 48 49 52 59 29 27 31 31 30 22 22 26 29
38 34 29 34 37 42 41 41 41 35 32 34 34 36 36 36 36 39 44 43 46 49 46 44 47 54 64 62 46 49 46 48 50 68 37 37 27 30 33 29 21 25 24
29 28 30 34 40 40 38 38 36 34 35 34 37 36 39 37 35 34 34 39 40 42 47 43 44 46 60 63 55 47 44 45 49 58 41 37 33 31 29 27 28 31 25
32 32 32 36 37 39 38 37 34 37 38 36 37 34 33 35 39 41 42 39 38 38 43 43 39 36 49 49 59 51 42 40 45 54 39 36 36 34 35 27 30 31 33
33 33 33 36 39 40 40 45 38 40 37 35 36 34 32 33 35 40 37 36 35 35 37 38 34 36 43 55 67 52 52 42 46 61 49 41 33 34 35 32 31 30 32
36 36 35 37 41 55 47 42 40 37 36 34 33 30 34 35 36 33 31 32 31 32 35 36 36 34 35 43 70 67 60 51 45 46 41 39 35 35 33 33 28 37 33
36 37 36 39 46 51 49 41 40 34 36 34 37 37 31 31 29 21 14 8 21 24 33 35 33 36 36 37 37 67 57 60 53 50 29 31 30 36 35 30 27 22 29
36 36 38 43 50 57 46 42 42 40 35 34 36 35 26 23 25 17 9 2 6 15 21 29 33 34 33 35 41 55 61 53 58 49 28 32 30 38 32 29 27 25 26
45 42 36 46 45 55 46 41 38 37 36 32 34 26 25 22 24 9 10 4 6 12 19 22 32 38 35 35 49 56 66 56 62 33 26 34 29 36 44 30 23 27 27
46 42 33 43 44 52 46 46 38 36 33 39 28 23 25 22 22 10 3 4 4 12 17 22 24 26 37 52 57 51 54 40 50 34 23 21 22 23 31 34 20 28 24
50 46 37 38 41 47 44 43 46 38 32 32 28 23 21 23 26 19 5 5 6 2 15 17 21 28 36 55 57 59 48 48 46 39 31 26 30 33 35 35 29 27 25
53 51 44 37 37 42 43 46 48 45 37 31 27 27 22 19 29 24 12 8 9 5 7 21 27 40 41 48 55 53 53 44 46 44 38 38 36 32 40 36 32 34 37
65 48 48 33 40 39 40 39 46 43 43 34 32 33 27 24 16 15 15 19 20 20 23 28 41 45 47 39 51 54 39 40 44 41 37 35 31 29 32 30 32 34 38
57 54 42 41 33 34 41 34 35 45 39 37 33 31 32 27 26 15 14 19 29 26 35 48 45 42 44 43 44 31 30 34 34 31 32 34 31 31 27 29 26 28 30
42 61 43 43 40 37 42 46 34 25 38 41 35 35 36 30 22 16 20 21 27 30 40 46 35 32 33 31 26 21 21 23 22 25 27 32 20 16 17 26 22 20 27
39 44 56 40 40 37 36 39 50 42 30 35 40 33 35 34 34 32 24 22 26 29 30 36 34 30 24 21 18 17 13 15 18 22 22 22 20 17 24 22 19 23 23
36 38 48 50 36 37 35 34 36 42 39 33 29 30 32 28 27 29 28 19 10 16 20 22 17 16 13 14 14 13 14 15 19 23 23 22 20 27 27 26 23 22 26
37 36 34 50 38 31 30 32 35 36 38 34 25 24 21 17 22 23 22 20 12 6 8 18 24 21 14 12 10 10 11 14 19 29 27 24 24 25 29 28 24 23 27
45 43 32 32 43 49 42 31 34 39 42 39 34 27 18 14 10 7 2 4 4 3 1 6 15 15 16 17 15 17 19 25 28 23 19 21 23 26 29 28 25 26 29
50 50 45 42 43 39 42 52 52 51 48 47 44 37 30 22 12 5 2 2 4 11 16 18 17 16 17 20 18 26 22 24 26 25 23 24 25 25 27 29 33 26 27
47 44 48 50 47 44 45 48 49 52 53 52 52 52 48 45 37 26 16 8 10 15 16 18 27 32 29 26 26 25 21 29 33 31 30 28 26 18 19 25 31 26 26
46 48 50 47 46 46 48 49 49 48 48 49 50 48 53 56 53 49 40 27 16 13 18 18 20 22 26 32 32 33 35 34 32 36 35 32 29 23 22 30 29 32 29
47 48 48 49 48 50 51 52 52 51 51 51 49 49 49 48 50 55 48 45 36 25 16 13 23 29 29 32 36 38 40 40 42 41 38 33 31 32 29 29 32 35 31
44 46 47 48 48 50 51 50 50 51 52 54 53 51 49 47 45 43 44 47 46 42 35 25 14 12 21 30 41 42 43 41 39 40 40 35 38 39 39 33 39 44 43
44 45 49 50 50 50 50 51 52 52 53 53 52 52 53 52 48 47 45 44 41 43 41 37 33 25 15 12 18 27 35 41 44 44 40 38 36 36 39 41 36 44 46
Wind_Direction_500mb
343 332 319 315 319 316 319 316 308 302 308 306 296 293 285 288 279 266 272 266 259 255 257 254 234 229 225 215 212 223 227 224 230 230 249 214 210 215 231 236 222 225 238
339 339 331 323 320 328 323 317 313 303 309 308 301 295 296 293 287 278 270 269 260 252 249 252 241 222 218 223 216 218 230 223 224 224 231 216 202 221 223 225 220 223 222
336 330 337 340 336 335 328 328 324 315 307 310 306 300 294 288 286 284 280 271 266 254 244 242 242 233 224 220 218 219 220 216 219 216 231 224 211 216 219 230 214 213 224
336 337 336 338 341 336 335 328 328 317 312 305 309 302 292 288 286 284 282 274 260 254 237 234 233 229 217 212 202 205 212 214 216 215 227 221 203 206 221 213 215 204 208
341 341 336 337 339 340 337 327 326 318 318 312 312 313 305 293 295 293 283 269 262 250 232 225 222 225 217 214 202 204 203 210 210 206 222 215 202 206 208 205 209 201 198
336 335 332 334 332 336 334 336 325 325 330 324 315 314 316 309 306 298 286 269 248 239 230 217 215 221 218 211 203 197 201 206 210 211 209 213 202 203 207 207 197 200 204
341 336 333 331 331 339 333 333 330 330 338 327 324 324 321 322 314 307 294 249 236 231 224 221 219 222 225 212 203 202 204 204 209 197 211 210 204 201 207 200 210 206 206
340 336 336 332 333 336 336 334 335 339 331 335 326 332 327 330 331 339 356 215 225 225 215 206 210 208 217 206 200 201 201 201 198 209 208 206 211 206 206 201 202 205 210
335 335 336 332 337 338 338 341 333 340 342 336 332 344 344 343 348 6 27 113 189 205 199 201 203 210 218 210 186 197 197 193 200 194 199 211 188 199 202 191 200 210 216
348 346 338 333 338 346 350 347 348 344 343 334 335 351 353 350 355 346 15 107 189 186 196 200 209 215 206 208 182 197 196 200 197 194 195 197 194 215 193 187 198 208 222
349 352 349 337 341 352 2 359 357 348 344 346 344 355 357 4 348 348 314 39 222 229 223 209 212 204 193 181 175 181 181 187 182 188 187 191 199 207 199 203 199 206 221
350 356 359 353 355 358 7 10 7 2 355 3 360 13 6 12 17 9 47 47 106 74 188 209 194 182 179 172 173 179 179 181 175 185 189 191 196 210 206 209 217 233 239
353 358 357 1 352 354 9 9 15 21 18 14 10 10 14 9 15 20 37 98 77 90 136 150 159 156 156 158 162 174 164 167 179 184 192 200 205 204 204 212 222 231 233
359 360 6 5 360 359 13 22 17 20 28 35 24 21 23 16 17 28 54 67 62 94 121 131 135 146 158 142 132 149 167 174 183 187 201 203 212 212 214 228 241 239 255
351 5 7 12 6 3 6 1 10 20 20 26 27 20 18 26 31 67 83 81 84 94 117 129 126 120 122 132 146 164 171 183 182 197 200 199 205 212 228 236 246 247 246
358 10 13 15 18 20 21 26 16 17 29 36 37 38 40 40 46 56 104 101 100 95 125 127 124 136 142 147 156 158 167 173 188 203 196 193 210 242 251 242 245 233 232
5 3 16 16 18 19 20 9 19 31 22 32 39 42 41 48 59 71 78 106 117 92 134 137 140 147 150 158 165 170 181 191 196 181 194 206 225 236 252 244 257 229 241
6 11 2 15 21 25 25 29 23 15 30 32 30 34 45 49 62 64 68 79 83 132 142 169 153 135 148 157 166 186 199 192 193 204 212 221 244 245 255 251 256 238 234
17 19 17 10 22 24 22 19 23 20 20 28 34 37 35 44 60 62 63 63 54 20 207 197 191 180 174 183 199 208 211 213 224 224 224 244 257 262 251 242 242 240 241
29 27 46 13 25 37 30 18 10 12 18 22 25 28 33 43 64 93 164 140 96 13 58 226 223 221 215 232 244 247 235 223 221 217 239 257 265 263 256 248 251 257 236
34 32 32 37 35 27 27 32 34 31 32 32 32 26 19 19 17 358 342 118 236 236 219 210 211 223 235 251 247 250 233 221 214 230 248 271 262 266 245 238 249 230 241
33 37 36 34 32 33 36 36 35 35 35 37 38 36 35 36 31 20 2 329 268 249 248 249 238 230 223 231 237 244 235 231 228 246 267 274 264 268 242 235 236 235 251
38 36 39 38 39 38 37 37 35 33 33 33 33 35 36 36 31 30 28 19 357 307 273 262 256 254 241 233 230 232 235 237 246 259 267 268 260 264 263 239 231 235 247
34 37 36 36 35 36 37 38 38 37 34 33 31 31 30 31 31 27 29 28 27 18 354 299 259 251 250 249 246 247 251 254 255 256 257 262 255 259 265 246 245 242 247
30 29 33 36 32 32 32 33 33 33 33 34 34 31 29 29 27 25 23 28 31 30 26 19 360 299 265 253 250 252 253 252 251 255 261 257 252 255 257 251 245 241 244
30 28 26 27 29 31 30 28 28 28 28 29 29 28 27 28 25 20 19 20 21 28 27 24 23 16 353 306 270 256 247 253 256 260 264 262 261 253 253 253 248 242 243
Wind_Speed_850mb
44 27 32 39 41 49 42 43 41 42 42 48 43 44 46 45 49 42 47 52 51 52 44 62 56 49 54 55 47 44 44 44 49 58 31 39 32 29 27 29 24 28 32
42 39 31 33 38 41 44 43 42 38 39 36 36 37 39 38 39 44 49 52 50 46 44 43 59 50 51 52 56 44 48 49 52 59 29 27 31 31 30 22 22 26 29
38 34 29 34 37 42 41 41 41 35 32 34 34 36 36 36 36 39 44 43 46 49 46 44 47 54 64 62 46 49 46 48 50 68 37 37 27 30 33 29 21 25 24
29 28 30 34 40 40 38 38 36 34 35 34 37 36 39 37 35 34 34 39 40 42 47 43 44 46 60 63 55 47 44 45 49 58 41 37 33 31 29 27 28 31 25
32 32 32 36 37 39 38 37 34 37 38 36 37 34 33 35 39 41 42 39 38 38 43 43 39 36 49 49 59 51 42 40 45 54 39 36 36 34 35 27 30 31 33
33 33 33 36 39 40 40 45 38 40 37 35 36 34 32 33 35 40 37 36 35 35 37 38 34 36 43 55 67 52 52 42 46 61 49 41 33 34 35 32 31 30 32
36 36 35 37 41 55 47 42 40 37 36 34 33 30 34 35 36 33 31 32 31 32 35 36 36 34 35 43 70 67 60 51 45 46 41 39 35 35 33 33 28 37 33
36 37 36 39 46 51 49 41 40 34 36 34 37 37 31 31 29 21 14 8 21 24 33 35 33 36 36 37 37 67 57 60 53 50 29 31 30 36 35 30 27 22 29
36 36 38 43 50 57 46 42 42 40 35 34 36 35 26 23 25 17 9 2 6 15 21 29 33 34 33 35 41 55 61 53 58 49 28 32 30 38 32 29 27 25 26
45 42 36 46 45 55 46 41 38 37 36 32 34 26 25 22 24 9 10 4 6 12 19 22 32 38 35 35 49 56 66 56 62 33 26 34 29 36 44 30 23 27 27
46 42 33 43 44 52 46 46 38 36 33 39 28 23 25 22 22 10 3 4 4 12 17 22 24 26 37 52 57 51 54 40 50 34 23 21 22 23 31 34 20 28 24
50 46 37 38 41 47 44 43 46 38 32 32 28 23 21 23 26 19 5 5 6 2 15 17 21 28 36 55 57 59 48 48 46 39 31 26 30 33 35 35 29 27 25
53 51 44 37 37 42 43 46 48 45 37 31 27 27 22 19 29 24 12 8 9 5 7 21 27 40 41 48 55 53 53 44 46 44 38 38 36 32 40 36 32 34 37
65 48 48 33 40 39 40 39 46 43 43 34 32 33 27 24 16 15 15 19 20 20 23 28 41 45 47 39 51 54 39 40 44 41 37 35 31 29 32 30 32 34 38
57 54 42 41 33 34 41 34 35 45 39 37 33 31 32 27 26 15 14 19 29 26 35 48 45 42 44 43 44 31 30 34 34 31 32 34 31 31 27 29 26 28 30
42 61 43 43 40 37 42 46 34 25 38 41 35 35 36 30 22 16 20 21 27 30 40 46 35 32 33 31 26 21 21 23 22 25 27 32 20 16 17 26 22 20 27
39 44 56 40 40 37 36 39 50 42 30 35 40 33 35 34 34 32 24 22 26 29 30 36 34 30 24 21 18 17 13 15 18 22 22 22 20 17 24 22 19 23 23
36 38 48 50 36 37 35 34 36 42 39 33 29 30 32 28 27 29 28 19 10 16 20 22 17 16 13 14 14 13 14 15 19 23 23 22 20 27 27 26 23 22 26
37 36 34 50 38 31 30 32 35 36 38 34 25 24 21 17 22 23 22 20 12 6 8 18 24 21 14 12 10 10 11 14 19 29 27 24 24 25 29 28 24 23 27
45 43 32 32 43 49 42 31 34 39 42 39 34 27 18 14 10 7 2 4 4 3 1 6 15 15 16 17 15 17 19 25 28 23 19 21 23 26 29 28 25 26 29
50 50 45 42 43 39 42 52 52 51 48 47 44 37 30 22 12 5 2 2 4 11 16 18 17 16 17 20 18 26 22 24 26 25 23 24 25 25 27 29 33 26 27
47 44 48 50 47 44 45 48 49 52 53 52 52 52 48 45 37 26 16 8 10 15 16 18 27 32 29 26 26 25 21 29 33 31 30 28 26 18 19 25 31 26 26
46 48 50 47 46 46 48 49 49 48 48 49 50 48 53 56 53 49 40 27 16 13 18 18 20 22 26 32 32 33 35 34 32 36 35 32 29 23 22 30 29 32 29
47 48 48 49 48 50 51 52 52 51 51 51 49 49 49 48 50 55 48 45 36 25 16 13 23 29 29 32 36 38 40 40 42 41 38 33 31 32 29 29 32 35 31
44 46 47 48 48 50 51 50 50 51 52 54 53 51 49 47 45 43 44 47 46 42 35 25 14 12 21 30 41 42 43 41 39 40 40 35 38 39 39 33 39 44 43
44 45 49 50 50 50 50 51 52 52 53 53 52 52 53 52 48 47 45 44 41 43 41 37 33 25 15 12 18 27 35 41 44 44 40 38 36 36 39 41 36 44 46
Wind_Direction_850mb
343 332 319 315 319 316 319 316 308 302 308 306 296 293 285 288 279 266 272 266 259 255 257 254 234 229 225 215 212 223 227 224 230 230 249 214 210 215 231 236 222 225 238
339 339 331 323 320 328 323 317 313 303 309 308 301 295 296 293 287 278 270 269 260 252 249 252 241 222 218 223 216 218 230 223 224 224 231 216 202 221 223 225 220 223 222
336 330 337 340 336 335 328 328 324 315 307 310 306 300 294 288 286 284 280 271 266 254 244 242 242 233 224 220 218 219 220 216 219 216 231 224 211 216 219 230 214 213 224
336 337 336 338 341 336 335 328 328 317 312 305 309 302 292 288 286 284 282 274 260 254 237 234 233 229 217 212 202 205 212 214 216 215 227 221 203 206 221 213 215 204 208
341 341 336 337 339 340 337 327 326 318 318 312 312 313 305 293 295 293 283 269 262 250 232 225 222 225 217 214 202 204 203 210 210 206 222 215 202 206 208 205 209 201 198
336 335 332 334 332 336 334 336 325 325 330 324 315 314 316 309 306 298 286 269 248 239 230 217 215 221 218 211 203 197 201 206 210 211 209 213 202 203 207 207 197 200 204
341 336 333 331 331 339 333 333 330 330 338 327 324 324 321 322 314 307 294 249 236 231 224 221 219 222 225 212 203 202 204 204 209 197 211 210 204 201 207 200 210 206 206
340 336 336 332 333 336 336 334 335 339 331 335 326 332 327 330 331 339 356 215 225 225 215 206 210 208 217 206 200 201 201 201 198 209 208 206 211 206 206 201 202 205 210
335 335 336 332 337 338 338 341 333 340 342 336 332 344 344 343 348 6 27 113 189 205 199 201 203 210 218 210 186 197 197 193 200 194 199 211 188 199 202 191 200 210 216
348 346 338 333 338 346 350 347 348 344 343 334 335 351 353 350 355 346 15 107 189 186 196 200 209 215 206 208 182 197 196 200 197 194 195 197 194 215 193 187 198 208 222
349 352 349 337 341 352 2 359 357 348 344 346 344 355 357 4 348 348 314 39 222 229 223 209 212 204 193 181 175 181 181 187 182 188 187 191 199 207 199 203 199 206 221
350 356 359 353 355 358 7 10 7 2 355 3 360 13 6 12 17 9 47 47 106 74 188 209 194 182 179 172 173 179 179 181 175 185 189 191 196 210 206 209 217 233 239
353 358 357 1 352 354 9 9 15 21 18 14 10 10 14 9 15 20 37 98 77 90 136 150 159 156 156 158 162 174 164 167 179 184 192 200 205 204 204 212 222 231 233
359 360 6 5 360 359 13 22 17 20 28 35 24 21 23 16 17 28 54 67 62 94 121 131 135 146 158 142 132 149 167 174 183 187 201 203 212 212 214 228 241 239 255
351 5 7 12 6 3 6 1 10 20 20 26 27 20 18 26 31 67 83 81 84 94 117 129 126 120 122 132 146 164 171 183 182 197 200 199 205 212 228 236 246 247 246
358 10 13 15 18 20 21 26 16 17 29 36 37 38 40 40 46 56 104 101 100 95 125 127 124 136 142 147 156 158 167 173 188 203 196 193 210 242 251 242 245 233 232
5 3 16 16 18 19 20 9 19 31 22 32 39 42 41 48 59 71 78 106 117 92 134 137 140 147 150 158 165 170 181 191 196 181 194 206 225 236 252 244 257 229 241
6 11 2 15 21 25 25 29 23 15 30 32 30 34 45 49 62 64 68 79 83 132 142 169 153 135 148 157 166 186 199 192 193 204 212 221 244 245 255 251 256 238 234
17 19 17 10 22 24 22 19 23 20 20 28 34 37 35 44 60 62 63 63 54 20 207 197 191 180 174 183 199 208 211 213 224 224 224 244 257 262 251 242 242 240 241
29 27 46 13 25 37 30 18 10 12 18 22 25 28 33 43 64 93 164 140 96 13 58 226 223 221 215 232 244 247 235 223 221 217 239 257 265 263 256 248 251 257 236
34 32 32 37 35 27 27 32 34 31 32 32 32 26 19 19 17 358 342 118 236 236 219 210 211 223 235 251 247 250 233 221 214 230 248 271 262 266 245 238 249 230 241
33 37 36 34 32 33 36 36 35 35 35 37 38 36 35 36 31 20 2 329 268 249 248 249 238 230 223 231 237 244 235 231 228 246 267 274 264 268 242 235 236 235 251
38 36 39 38 39 38 37 37 35 33 33 33 33 35 36 36 31 30 28 19 357 307 273 262 256 254 241 233 230 232 235 237 246 259 267 268 260 264 263 239 231 235 247
34 37 36 36 35 36 37 38 38 37 34 33 31 31 30 31 31 27 29 28 27 18 354 299 259 251 250 249 246 247 251 254 255 256 257 262 255 259 265 246 245 242 247
30 29 33 36 32 32 32 33 33 33 33 34 34 31 29 29 27 25 23 28 31 30 26 19 360 299 265 253 250 252 253 252 251 255 261 257 252 255 257 251 245 241 244
30 28 26 27 29 31 30 28 28 28 28 29 29 28 27 28 25 20 19 20 21 28 27 24 23 16 353 306 270 256 247 253 256 260 264 262 261 253 253 253 248 242 243